Location: Agnetz
(49.3812°N, 2.3862°E)
Time: 23:55:42
(UTC+00:00)

Daily predictions for brighter satellites

Satellite Brightness Start Highest point End
(mag) Time Altitude Azimuth Time Altitude Azimuth Time Altitude Azimuth
Cosmos 2360 Rocket 2.3 20:33:01 10° NNW 20:38:44 87° ENE 20:44:24 10° SSE
Cosmos 1707 4.3 20:37:05 10° SW 20:40:26 36° WNW 20:43:48 10° N
Okean O Rocket 3.4 20:36:38 10° SSW 20:40:28 29° W 20:44:19 10° NW
Ariane Rocket 3.4 20:35:40 10° SE 20:40:36 53° ENE 20:45:35 10° N
Cosmos 2228 Rocket 3.4 20:37:04 10° S 20:41:28 51° E 20:45:55 10° NNE
Cosmos 1315 Rocket 4.3 20:44:08 10° SE 20:47:11 21° E 20:50:15 10° NE
BREEZE-M DEB (TANK) 3.1 20:38:01 10° WSW 20:47:44 79° NNW 20:50:40 10° ENE
Terra 1.8 20:45:36 10° SSE 20:50:18 75° ENE 20:55:02 10° N
SeaSat 1 2.5 20:46:35 10° SE 20:51:30 77° ENE 20:56:26 10° NNW
Cosmos 1655 Rocket 4.1 20:46:53 10° S 20:53:14 72° E 20:59:37 10° NNE
SL-16 R/B 3.4 20:49:28 10° NW 20:54:41 39° WSW 20:59:53 10° S
Cosmos 1356 Rocket 3.4 20:51:24 10° S 20:55:33 69° E 20:59:45 10° NNE
Cosmos 1300 2.6 20:53:58 10° NNW 20:57:33 81° W 21:01:06 10° S
Cosmos 1862 Rocket 3.8 20:53:38 10° S 20:57:55 54° E 21:02:17 10° NNE
Cosmos 1850 Rocket 4.0 20:53:50 10° SSW 20:59:04 90° ENE 21:04:18 10° NNE
Cosmos 968 Rocket 3.5 20:54:19 10° S 20:59:24 66° ESE 21:04:35 10° NNE
SJ 16-02 1.5 20:56:27 10° S 21:00:36 49° ESE 21:04:48 10° NNE
Cosmos 1346 Rocket 2.8 20:57:40 10° NNW 21:01:33 83° W 21:05:23 10° S
DNEPR-1 R/B 4.4 20:57:04 10° NW 21:03:56 90° WSW 21:09:14 11° SE
Cosmos 2333 Rocket 2.5 20:59:49 10° NNW 21:05:32 67° WSW 21:11:14 10° SSE
SL-14 R/B 3.3 21:03:07 10° SSW 21:06:54 81° WNW 21:10:44 10° N
Meteor 2-10 Rocket 4.1 21:04:15 10° NNW 21:09:41 59° W 21:14:52 10° S
Kosmos-1783 4.4 21:07:28 10° NW 21:10:53 73° NE 21:17:48 10° SE
Meteor 2-20 4.5 21:07:32 10° N 21:13:45 86° E 21:19:55 10° S
USA 234 3.4 21:09:06 10° ENE 21:15:29 51° SE 21:21:48 10° SSW
Cosmos 2237 Rocket 3.8 21:11:39 10° NNW 21:16:21 26° NE 21:21:00 10° E
Cosmos 1707 Rocket 3.7 21:13:24 10° SSW 21:17:51 81° W 21:22:19 10° N
Meteor 1-4 Rocket 2.1 21:15:14 10° S 21:18:10 57° E 21:21:08 10° NNE
Cosmos 1833 4.2 21:12:54 10° SSW 21:18:33 82° ESE 21:24:11 10° NNE
Cosmos 1814 Rocket 4.2 21:14:24 10° NNW 21:19:43 74° WSW 21:24:47 11° SSE
Okean 1-7 3.3 21:18:22 11° SSE 21:22:24 49° E 21:26:35 10° NNE
Cosmos 1932 4.4 21:16:33 10° SSW 21:22:50 70° SE 21:29:05 10° NE
MetOp-A 4.3 21:19:24 12° SSE 21:24:08 62° ENE 21:29:18 10° N
Cosmos 2322 3.9 21:19:21 10° NNW 21:25:02 66° ENE 21:29:58 14° SE
Meteor 1-16 Rocket 4.4 21:20:35 10° NNW 21:26:33 90° SSW 21:32:10 11° S
EXPRESS MD2 2.1 21:25:16 10° W 21:27:54 76° N 21:30:03 10° E
SL-4 R/B 1.9 21:25:20 10° WNW 21:29:12 85° NNE 21:33:21 10° ESE
SPOT 3 Rocket 3.8 21:24:24 10° S 21:29:32 68° WSW 21:34:43 10° NNW
Landsat 4 4.0 21:27:29 11° S 21:30:40 53° WSW 21:34:03 10° NNW
ERS-1 Rocket 4.0 21:27:48 10° SSW 21:32:32 41° W 21:37:19 10° NNW
Cosmos 1733 Rocket 4.0 21:29:56 10° NNW 21:34:10 46° W 21:38:23 10° SSW
Cosmos 2322 Rocket 3.6 21:29:50 10° NW 21:34:44 30° WSW 21:39:37 10° SSW
Cosmos 2297 Rocket 3.6 21:40:55 15° SE 21:43:38 20° E 21:47:39 10° NE
Cosmos 1455 1.9 21:40:15 10° N 21:43:47 82° ENE 21:46:13 19° SSE
CZ-4C R/B 2.9 21:44:21 17° SSE 21:46:45 26° ESE 21:51:08 10° ENE
Aureole 3 4.2 21:43:39 10° SSW 21:47:54 63° WNW 21:53:15 10° N
COSMOS 2455 3.5 21:44:04 13° S 21:48:50 36° ESE 21:54:16 10° NE
Landsat 5 3.4 21:45:12 10° NNE 21:49:17 83° ESE 21:53:14 12° SSW
Cosmos 1908 Rocket 3.5 21:47:39 10° N 21:52:01 87° W 21:55:13 18° S
BlueWalker 3 1.8 21:48:41 10° SW 21:52:23 61° SSE 21:56:05 10° ENE
ARIANE 5 R/B 3.3 21:51:36 17° SE 21:54:34 43° ENE 21:58:42 10° N
Cosmos 2208 Rocket 4.0 21:49:28 10° NNW 21:54:42 75° ENE 21:58:28 19° SSE
USA 281 3.6 21:49:08 13° SE 21:54:50 57° NE 22:01:15 10° NNW
Cosmos 1782 Rocket 3.8 21:51:04 10° N 21:55:20 54° ENE 21:58:09 20° SSE
Cosmos 2219 Rocket 2.8 21:50:01 10° NW 21:55:29 49° WSW 21:59:59 15° S
ATLAS CENTAUR R/B 3.6 21:53:41 10° W 21:56:40 25° NW 21:59:46 10° NNE
GENESIS II 3.9 21:53:09 10° SW 21:56:47 88° SE 22:00:27 10° NE
Okean 3 4.4 21:53:41 10° SSW 21:57:40 45° WNW 22:01:42 10° N
Cosmos 1408 3.3 21:59:09 22° ESE 22:00:02 27° E 22:02:38 10° NNE
H-2A R/B 3.9 21:57:47 14° ESE 22:00:40 29° ENE 22:04:20 10° N
GP-B 3.2 21:58:21 10° N 22:02:45 62° E 22:05:37 21° SSE
ATLAS 2AS CENTAUR R/B 3.9 21:57:21 10° NW 22:03:06 30° WSW 22:08:16 12° S
CZ-2C R/B 4.1 22:00:29 10° NNE 22:04:44 44° E 22:07:20 21° SSE
Cosmos 1300 Rocket 3.7 22:03:12 10° N 22:07:29 60° ENE 22:10:06 22° SSE
Cosmos 1745 Rocket 4.1 22:04:38 17° S 22:09:36 65° E 22:15:55 10° NNE
COSMOS 2428 2.8 22:04:11 10° NNW 22:09:53 76° WSW 22:13:54 20° SSE
Cosmos 1953 3.2 22:09:39 10° NNW 22:13:16 41° W 22:15:58 16° SSW
Nadezhda 1 Rocket 4.0 22:08:33 10° N 22:14:53 88° E 22:19:26 19° S
Cosmos 1386 Rocket 4.5 22:09:43 15° S 22:14:58 80° E 22:21:09 10° N
Cosmos 2360 Rocket 4.3 22:18:25 10° WNW 22:21:57 17° W 22:25:27 10° SW
Cosmos 1486 Rocket 4.1 22:19:12 19° S 22:22:47 59° ESE 22:27:55 10° NNE
Cosmos 1315 Rocket 4.2 22:19:24 10° SW 22:23:06 37° WNW 22:26:50 10° N
Cosmos 1242 Rocket 3.1 22:23:42 17° SW 22:25:26 37° WNW 22:28:02 10° N
NOSS 0 Rocket 4.0 22:21:54 10° NNW 22:28:10 80° WSW 22:32:23 22° SSE
Terra 4.2 22:25:42 10° WSW 22:28:26 15° W 22:31:11 10° NW
SeaSat 1 4.4 22:26:03 10° SSW 22:29:26 18° WSW 22:32:50 10° WNW
Cosmos 1703 3.7 22:28:05 28° SE 22:29:28 41° E 22:32:57 10° NNE
Meteor 2-5 Rocket 4.3 22:28:49 22° SSE 22:32:20 47° E 22:37:52 10° NNE
Cosmos 371 Rocket 3.3 22:30:44 22° S 22:33:43 62° ESE 22:38:29 10° NNE
Cosmos 1703 Rocket 4.4 22:31:14 12° SSW 22:35:10 48° WNW 22:39:29 10° N
Cosmos 158 Rocket 4.3 22:30:15 10° NNW 22:35:25 56° WSW 22:38:32 23° S
NOSS 8 (H) 4.2 22:32:45 13° SW 22:36:03 78° SE 22:39:05 10° NE
Okean 2 Rocket 4.4 22:32:13 10° N 22:36:13 31° ENE 22:38:45 18° ESE
SJ 16-02 3.7 22:35:50 10° WSW 22:39:13 22° NW 22:42:39 10° N
ALOS 2 3.3 22:39:39 22° SE 22:42:06 46° ENE 22:46:19 10° N
CENTAUR R/B 3.3 22:48:39 23° SSE 22:50:55 30° ESE 22:56:40 10° NE
Cosmos 1174 4.0 22:47:52 10° NW 22:52:55 85° NE 22:55:02 28° SE
SL-16 R/B 3.3 22:51:00 10° NNW 22:56:22 40° NE 23:01:20 12° ESE
PSLV R/B 3.9 22:54:19 10° N 22:58:18 73° WNW 23:00:29 26° SSW
USA 234 3.6 22:52:10 10° ENE 22:58:40 69° NNW 23:05:09 10° WSW
Cosmos 2237 Rocket 2.2 22:55:20 10° NNW 23:01:00 74° WSW 23:04:13 26° SSE
Cosmos 2084 Rocket 3.4 22:59:46 27° SSW 23:01:55 60° SE 23:06:00 10° NE
Cosmos 2221 Rocket 4.4 23:00:25 26° SE 23:02:13 37° E 23:06:19 10° NNE
Sich 1 Rocket 3.8 23:02:43 10° N 23:07:04 58° ENE 23:09:07 29° SE
Cosmos 2227 Rocket 2.6 23:04:47 27° SSE 23:07:31 46° ESE 23:12:56 10° NE
SL-4 R/B 2.8 23:04:10 10° W 23:07:46 32° SW 23:08:18 30° SSW
Cosmos 2242 Rocket 4.1 23:05:38 21° SSW 23:08:30 57° WNW 23:13:02 10° N
Cosmos 1709 Rocket 4.2 23:04:08 20° SSW 23:08:47 72° W 23:15:09 10° N
Cosmos 773 Rocket 4.4 23:06:54 10° NNW 23:11:53 51° WSW 23:14:27 27° SSW
Cosmos 304 Rocket 3.9 23:10:22 20° SSW 23:13:36 72° WNW 23:18:23 10° NNE
Cosmos 1980 4.0 23:09:12 10° NW 23:14:44 56° WSW 23:17:41 27° S
Cosmos 2098 Rocket 4.1 23:08:09 10° NNW 23:14:47 79° W 23:18:33 26° S
Spot 4 4.1 23:19:08 28° SSW 23:21:29 57° W 23:26:15 10° NNW
Spot 2 4.5 23:22:17 29° S 23:24:53 74° WSW 23:29:54 10° NNW
Meteor 1-24 Rocket 3.9 23:22:42 22° SSW 23:26:26 71° WNW 23:32:01 10° N
Okean 1 Rocket 3.3 23:22:08 10° N 23:26:27 60° ENE 23:28:27 30° SSE
Cosmos 405 Rocket 3.0 23:23:14 10° NNW 23:26:55 52° W 23:28:11 35° SSW
Cosmos 2297 Rocket 2.3 23:22:39 17° SW 23:27:03 75° WNW 23:32:44 10° NNE
Cosmos 332 Rocket 3.8 23:26:12 30° S 23:28:37 73° ESE 23:33:31 10° NNE
Cosmos 2184 Rocket 4.3 23:25:09 26° SSE 23:28:48 61° E 23:35:06 10° NNE
BlueWalker 3 2.8 23:26:59 10° W 23:30:39 50° N 23:34:18 10° ENE
ARIANE 5 R/B 4.3 23:29:03 16° SW 23:31:09 22° W 23:34:36 10° NW
H-2A R/B 2.8 23:29:19 10° NNE 23:33:16 38° E 23:34:41 29° SE
Cosmos 1777 Rocket 4.2 23:30:35 21° SW 23:34:10 71° WNW 23:39:28 10° NNE
CZ-4C R/B 2.6 23:29:57 10° WSW 23:34:34 58° NW 23:40:27 10° NE
COSMOS 2455 3.6 23:28:42 10° SW 23:34:35 53° NW 23:40:31 10° NNE
H-2A R/B 3.6 23:33:46 24° SW 23:35:30 33° W 23:39:23 10° NNW
Cosmos 2219 3.7 23:33:05 27° SSE 23:35:33 43° ESE 23:40:50 10° NE
Cosmos 1892 2.3 23:36:25 45° S 23:37:24 89° E 23:40:57 10° N
USA 281 4.1 23:36:00 21° SSW 23:39:35 36° WSW 23:45:35 10° NW
Cosmos 1538 Rocket 4.0 23:34:27 10° NNW 23:39:42 77° ENE 23:42:45 26° SSE
Cosmos 1825 1.8 23:44:14 46° SSW 23:45:09 82° W 23:48:36 10° N
Cosmos 2154 Rocket 4.1 23:42:57 26° S 23:46:31 67° E 23:52:46 10° NNE
NOSS 3-2 (A) 3.6 23:45:46 29° S 23:47:56 44° ESE 23:53:41 10° NE
Cosmos 1975 Rocket 4.4 23:48:45 21° SE 23:50:39 29° E 23:54:27 10° NNE
Cosmos 2263 Rocket 2.8 23:51:47 27° SSE 23:54:15 42° ESE 23:59:29 10° NE
PSLV R/B 3.4 23:50:06 10° NNE 23:54:20 83° WNW 23:56:06 34° SSW
Orbus 7S? 4.1 23:53:19 10° NW 23:55:51 36° NNE 23:58:44 10° E
